TimeAEST,TemperatureF,Dew PointF,Humidity,Sea Level PressureIn,VisibilityMPH,Wind Direction,Wind SpeedMPH,Gust SpeedMPH,PrecipitationIn,Events,Conditions,WindDirDegrees,DateUTC
12:00 AM,71,65,75,29.97,,SSE,5.8,,,,,160,2013-08-21 14:00:00
12:00 AM,71.6,64.4,78,29.95,6.2,SSE,5.8,-,N/A,,Partly Cloudy,160,2013-08-21 14:00:00
12:30 AM,69.8,64.4,83,29.95,6.2,SSE,6.9,-,N/A,,Partly Cloudy,150,2013-08-21 14:30:00
1:00 AM,70,65,79,29.97,,SE,10.4,,,,,130,2013-08-21 15:00:00
1:00 AM,69.8,64.4,83,29.95,6.2,SE,10.4,-,N/A,,Partly Cloudy,130,2013-08-21 15:00:00
1:30 AM,69.8,64.4,83,29.95,6.2,SE,9.2,-,N/A,,Scattered Clouds,140,2013-08-21 15:30:00
2:00 AM,69.8,64.4,83,29.95,6.2,SSE,10.4,-,N/A,,Scattered Clouds,150,2013-08-21 16:00:00
2:30 AM,69.8,64.4,83,29.95,6.2,SSE,6.9,-,N/A,,Scattered Clouds,150,2013-08-21 16:30:00
3:00 AM,69,64,79,29.94,,SSE,5.8,,,,Overcast,150,2013-08-21 17:00:00
3:00 AM,69.8,64.4,83,29.95,6.2,SSE,5.8,-,N/A,,Scattered Clouds,150,2013-08-21 17:00:00
3:30 AM,69.8,64.4,83,29.95,6.2,SE,11.5,-,N/A,,Scattered Clouds,140,2013-08-21 17:30:00
4:00 AM,70,64,75,29.95,,SE,9.2,,,,,140,2013-08-21 18:00:00
4:00 AM,69.8,64.4,83,29.95,6.2,SE,9.2,-,N/A,,Scattered Clouds,140,2013-08-21 18:00:00
4:30 AM,69.8,64.4,83,29.95,6.2,SE,8.1,-,N/A,,Scattered Clouds,140,2013-08-21 18:30:00
5:00 AM,69.8,64.4,83,29.95,6.2,SE,10.4,-,N/A,,Mostly Cloudy,140,2013-08-21 19:00:00
5:30 AM,69.8,64.4,83,29.95,6.2,SE,9.2,-,N/A,,Mostly Cloudy,130,2013-08-21 19:30:00
6:00 AM,69,64,79,29.96,19,ESE,8.1,,,,Partly Cloudy,120,2013-08-21 20:00:00
6:00 AM,68.0,64.4,88,29.95,6.2,ESE,8.1,-,N/A,,Scattered Clouds,120,2013-08-21 20:00:00
6:30 AM,69.8,64.4,83,29.95,6.2,SE,2.3,-,N/A,,Scattered Clouds,130,2013-08-21 20:30:00
7:00 AM,69.8,64.4,83,29.98,6.2,SSE,5.8,-,N/A,,Scattered Clouds,150,2013-08-21 21:00:00
7:30 AM,71.6,64.4,78,29.98,6.2,SE,5.8,-,N/A,,Scattered Clouds,130,2013-08-21 21:30:00
8:00 AM,75.2,64.4,69,29.98,6.2,SSE,6.9,-,N/A,,Scattered Clouds,150,2013-08-21 22:00:00
8:30 AM,75.2,64.4,69,30.01,6.2,SSE,5.8,-,N/A,,Scattered Clouds,160,2013-08-21 22:30:00
9:00 AM,75,64,59,30.02,19,SSW,6.9,,,,Partly Cloudy,200,2013-08-21 23:00:00
9:00 AM,75.2,64.4,69,30.01,6.2,SSW,6.9,-,N/A,,Mostly Cloudy,200,2013-08-21 23:00:00
9:30 AM,75.2,64.4,69,30.04,6.2,South,8.1,-,N/A,,Mostly Cloudy,180,2013-08-21 23:30:00
10:00 AM,75.2,66.2,73,30.04,6.2,SE,9.2,-,N/A,,Mostly Cloudy,130,2013-08-22 00:00:00
10:30 AM,78.8,64.4,61,30.01,6.2,SSE,6.9,-,N/A,,Scattered Clouds,150,2013-08-22 00:30:00
11:00 AM,80.6,62.6,54,30.01,6.2,ESE,8.1,-,N/A,,Scattered Clouds,110,2013-08-22 01:00:00
11:30 AM,80.6,62.6,54,30.01,6.2,NE,11.5,-,N/A,,Partly Cloudy,50,2013-08-22 01:30:00
12:00 PM,81,64,46,30.00,19,ENE,9.2,,,,Partly Cloudy,70,2013-08-22 02:00:00
12:00 PM,80.6,64.4,58,29.98,6.2,ENE,9.2,-,N/A,,Scattered Clouds,70,2013-08-22 02:00:00
12:30 PM,80.6,62.6,54,29.98,6.2,ENE,11.5,-,N/A,,Scattered Clouds,60,2013-08-22 02:30:00
1:00 PM,81,63,45,29.98,,NE,11.5,,,,,40,2013-08-22 03:00:00
1:00 PM,80.6,62.6,54,29.95,6.2,NE,11.5,-,N/A,,Scattered Clouds,40,2013-08-22 03:00:00
1:30 PM,78.8,62.6,57,29.95,6.2,NE,11.5,-,N/A,,Mostly Cloudy,50,2013-08-22 03:30:00
2:00 PM,78.8,64.4,61,29.92,6.2,NE,9.2,-,N/A,,Mostly Cloudy,50,2013-08-22 04:00:00
2:30 PM,77.0,64.4,65,29.92,6.2,NE,8.1,-,N/A,,Mostly Cloudy,40,2013-08-22 04:30:00
3:00 PM,77,65,57,29.94,16,NE,8.1,,,,Partly Cloudy,50,2013-08-22 05:00:00
3:00 PM,77.0,64.4,65,29.92,6.2,NE,8.1,-,N/A,,Mostly Cloudy,50,2013-08-22 05:00:00
3:30 PM,78.8,64.4,61,29.92,6.2,East,8.1,-,N/A,,Mostly Cloudy,80,2013-08-22 05:30:00
3:45 PM,73.4,64.4,73,29.92,6.2,South,13.8,-,N/A,,Mostly Cloudy,190,2013-08-22 05:45:00
4:00 PM,72,64,69,29.95,,South,10.4,,,,,190,2013-08-22 06:00:00
4:00 PM,71.6,64.4,78,29.95,6.2,South,10.4,-,N/A,,Mostly Cloudy,190,2013-08-22 06:00:00
4:30 PM,73.4,62.6,69,29.92,6.2,South,8.1,-,N/A,,Mostly Cloudy,170,2013-08-22 06:30:00
5:00 PM,73.4,62.6,69,29.95,6.2,SSE,10.4,-,N/A,,Mostly Cloudy,150,2013-08-22 07:00:00
5:30 PM,73.4,62.6,69,29.95,6.2,South,4.6,-,N/A,,Mostly Cloudy,170,2013-08-22 07:30:00
6:00 PM,74,61,54,29.96,,South,5.8,,,,Overcast,180,2013-08-22 08:00:00
6:00 PM,73.4,60.8,65,29.95,6.2,South,5.8,-,N/A,,Mostly Cloudy,180,2013-08-22 08:00:00
6:30 PM,71.6,62.6,73,29.95,6.2,SSE,8.1,-,N/A,Rain,Light Rain Showers,150,2013-08-22 08:30:00
7:00 PM,71,63,70,29.99,,South,6.9,,,,,180,2013-08-22 09:00:00
7:00 PM,71.6,62.6,73,29.98,6.2,South,6.9,-,N/A,,Scattered Clouds,180,2013-08-22 09:00:00
7:30 PM,71.6,62.6,73,29.98,6.2,SSE,6.9,-,N/A,,Scattered Clouds,150,2013-08-22 09:30:00
8:00 PM,71.6,64.4,78,29.98,6.2,WNW,1.2,-,N/A,,Mostly Cloudy,290,2013-08-22 10:00:00
8:30 PM,71.6,64.4,78,30.01,6.2,SE,4.6,-,N/A,,Scattered Clouds,130,2013-08-22 10:30:00
9:00 PM,69.8,64.4,83,30.01,6.2,SSE,9.2,-,N/A,,Partly Cloudy,150,2013-08-22 11:00:00
9:30 PM,69.8,64.4,83,30.01,6.2,SE,10.4,-,N/A,,Partly Cloudy,140,2013-08-22 11:30:00
10:00 PM,69.8,64.4,83,30.01,6.2,SE,9.2,-,N/A,,Scattered Clouds,140,2013-08-22 12:00:00
10:30 PM,69.8,64.4,83,30.01,6.2,SSE,9.2,-,N/A,,Scattered Clouds,150,2013-08-22 12:30:00
11:00 PM,69.8,64.4,83,30.01,6.2,ESE,4.6,-,N/A,,Mostly Cloudy,110,2013-08-22 13:00:00
11:30 PM,69.8,64.4,83,30.01,6.2,SE,12.7,-,N/A,,Mostly Cloudy,140,2013-08-22 13:30:00